| time (UTC) | temp C | wind direction | speed KPH | gust KPH | rain 1hr cm | rain 24hr cm | rain mn cm | humidity % | barometer mb |
| 20260505213046 | 13 | 0 | 1.6 | 19.3 | 0.00 | 0.00 | 0.00 | 44 | 1013.0 |
| 20260505211535 | 14 | 0 | 0.0 | 12.9 | 0.00 | 0.00 | 0.00 | 43 | 1013.3 |
| 20260505210035 | 13 | 0 | 0.0 | 14.5 | 0.00 | 0.00 | 0.00 | 45 | 1013.4 |
| 20260505204554 | 13 | 0 | 1.6 | 11.3 | 0.00 | 0.00 | 0.00 | 46 | 1013.7 |
| 20260505203038 | 12 | 0 | 0.0 | 14.5 | 0.00 | 0.00 | 0.00 | 48 | 1014.0 |
| 20260505201538 | 12 | 0 | 1.6 | 16.1 | 0.00 | 0.00 | 0.00 | 47 | 1014.2 |
| 20260505200041 | 12 | 96 | 1.6 | 14.5 | 0.00 | 0.00 | 0.00 | 48 | 1014.2 |
| 20260505194544 | 12 | 0 | 0.0 | 14.5 | 0.00 | 0.00 | 0.00 | 49 | 1014.1 |
| 20260505193036 | 12 | 0 | 1.6 | 19.3 | 0.00 | 0.00 | 0.00 | 47 | 1014.0 |
| 20260505191540 | 13 | 0 | 0.0 | 14.5 | 0.00 | 0.00 | 0.00 | 45 | 1014.0 |
| 20260505190039 | 11 | 0 | 0.0 | 12.9 | 0.00 | 0.00 | 0.00 | 46 | 1014.1 |
| 20260505184535 | 13 | 95 | 1.6 | 14.5 | 0.00 | 0.00 | 0.00 | 39 | 1013.7 |
| 20260505183036 | 13 | 0 | 1.6 | 12.9 | 0.00 | 0.00 | 0.00 | 39 | 1014.1 |
| 20260505181534 | 13 | 0 | 1.6 | 14.5 | 0.00 | 0.00 | 0.00 | 39 | 1013.9 |
| 20260505174556 | 11 | 0 | 0.0 | 6.4 | 0.00 | 0.00 | 0.00 | 40 | 1014.5 |
| 20260505173044 | 12 | 0 | 0.0 | 9.7 | 0.00 | 0.00 | 0.00 | 41 | 1014.4 |
| 20260505171535 | 12 | 0 | 0.0 | 9.7 | 0.00 | 0.00 | 0.00 | 41 | 1014.4 |
| 20260505170042 | 11 | 0 | 0.0 | 11.3 | 0.00 | 0.00 | 0.00 | 43 | 1014.6 |
| 20260505164536 | 10 | 0 | 0.0 | 4.8 | 0.00 | 0.00 | 0.00 | 42 | 1014.9 |
| 20260505163035 | 10 | 0 | 0.0 | 3.2 | 0.00 | 0.00 | 0.00 | 44 | 1014.9 |
| 20260505161538 | 10 | 0 | 0.0 | 0.0 | 0.00 | 0.00 | 0.00 | 45 | 1014.9 |
| 20260505153036 | 10 | 0 | 0.0 | 0.0 | 0.00 | 0.00 | 0.00 | 45 | 1015.1 |
| 20260505151535 | 10 | 0 | 0.0 | 11.3 | 0.00 | 0.00 | 0.00 | 46 | 1015.1 |
| 20260505124538 | 8 | 0 | 0.0 | 0.0 | 0.00 | 0.00 | 0.00 | 44 | 1015.4 |
| 20260505123035 | 7 | 0 | 0.0 | 0.0 | 0.00 | 0.00 | 0.00 | 45 | 1015.4 |
| 20260505121540 | 7 | 0 | 0.0 | 0.0 | 0.00 | 0.00 | 0.00 | 44 | 1015.0 |
| 20260505120038 | 7 | 0 | 0.0 | 0.0 | 0.00 | 0.00 | 0.00 | 45 | 1014.8 |
| 20260505114537 | 7 | 0 | 0.0 | 0.0 | 0.00 | 0.00 | 0.00 | 45 | 1015.1 |
| 20260505113033 | 7 | 0 | 0.0 | 0.0 | 0.00 | 0.00 | 0.00 | 44 | 1015.2 |
| 20260505111539 | 7 | 0 | 0.0 | 0.0 | 0.00 | 0.00 | 0.00 | 43 | 1015.1 |
| 20260505101539 | 9 | 0 | 0.0 | 0.0 | 0.00 | 0.00 | 0.00 | 39 | 1014.9 |
| 20260505100038 | 9 | 0 | 0.0 | 0.0 | 0.00 | 0.00 | 0.00 | 39 | 1014.8 |
| 20260505094534 | 9 | 0 | 0.0 | 0.0 | 0.00 | 0.00 | 0.00 | 39 | 1014.9 |
| 20260505093038 | 10 | 0 | 0.0 | 0.0 | 0.00 | 0.00 | 0.00 | 38 | 1014.8 |
| 20260505091543 | 10 | 0 | 0.0 | 3.2 | 0.00 | 0.00 | 0.00 | 37 | 1014.7 |
| 20260505090035 | 9 | 0 | 0.0 | 0.0 | 0.00 | 0.00 | 0.00 | 36 | 1014.9 |
| 20260505084536 | 10 | 0 | 0.0 | 0.0 | 0.00 | 0.00 | 0.00 | 36 | 1015.2 |
| 20260505083035 | 10 | 0 | 0.0 | 0.0 | 0.00 | 0.00 | 0.00 | 34 | 1015.4 |
| 20260505081539 | 10 | 0 | 0.0 | 0.0 | 0.00 | 0.00 | 0.00 | 34 | 1016.0 |
| 20260505080036 | 11 | 0 | 0.0 | 0.0 | 0.00 | 0.00 | 0.00 | 33 | 1015.7 |
| 20260505074537 | 11 | 0 | 0.0 | 0.0 | 0.00 | 0.00 | 0.00 | 32 | 1015.9 |
| 20260505073035 | 11 | 0 | 0.0 | 12.9 | 0.00 | 0.00 | 0.00 | 32 | 1015.6 |
| 20260505071550 | 11 | 0 | 0.0 | 0.0 | 0.00 | 0.00 | 0.00 | 32 | 1015.3 |
| 20260505070046 | 12 | 0 | 0.0 | 0.0 | 0.00 | 0.00 | 0.00 | 31 | 1015.6 |
| 20260505064536 | 12 | 0 | 0.0 | 0.0 | 0.00 | 0.00 | 0.00 | 32 | 1015.6 |
| 20260505063039 | 12 | 0 | 0.0 | 0.0 | 0.00 | 0.00 | 0.00 | 32 | 1015.5 |
| 20260505061606 | 12 | 0 | 0.0 | 0.0 | 0.00 | 0.00 | 0.00 | 31 | 1015.6 |
| 20260505060039 | 12 | 0 | 0.0 | 0.0 | 0.00 | 0.00 | 0.00 | 31 | 1015.7 |
| 20260505054538 | 12 | 0 | 0.0 | 0.0 | 0.00 | 0.00 | 0.00 | 31 | 1015.5 |
| 20260505053041 | 12 | 0 | 0.0 | 0.0 | 0.00 | 0.00 | 0.00 | 32 | 1015.4 |
| 20260505051601 | 12 | 0 | 0.0 | 0.0 | 0.00 | 0.00 | 0.00 | 32 | 1015.4 |
| 20260505041535 | 13 | 0 | 0.0 | 0.0 | 0.00 | 0.00 | 0.00 | 29 | 1015.5 |
| 20260505040042 | 13 | 0 | 0.0 | 0.0 | 0.00 | 0.00 | 0.00 | 28 | 1015.7 |
| 20260505034535 | 13 | 0 | 0.0 | 0.0 | 0.00 | 0.00 | 0.00 | 27 | 1015.7 |
| 20260505033035 | 13 | 0 | 0.0 | 0.0 | 0.00 | 0.00 | 0.00 | 26 | 1015.5 |
| 20260505031534 | 13 | 0 | 0.0 | 0.0 | 0.00 | 0.00 | 0.00 | 25 | 1015.2 |
| 20260505030035 | 14 | 0 | 0.0 | 0.0 | 0.00 | 0.00 | 0.00 | 23 | 1015.0 |
| 20260505024544 | 14 | 0 | 0.0 | 0.0 | 0.00 | 0.00 | 0.00 | 22 | 1014.9 |
| 20260505023037 | 15 | 0 | 0.0 | 4.8 | 0.00 | 0.00 | 0.00 | 22 | 1014.7 |
| 20260505021536 | 15 | 0 | 0.0 | 0.0 | 0.00 | 0.00 | 0.00 | 20 | 1014.6 |
| 20260505020035 | 15 | 0 | 0.0 | 6.4 | 0.00 | 0.00 | 0.00 | 20 | 1014.6 |
| 20260505014542 | 16 | 0 | 0.0 | 9.7 | 0.00 | 0.00 | 0.00 | 19 | 1014.4 |
| 20260505013040 | 16 | 0 | 0.0 | 12.9 | 0.00 | 0.00 | 0.00 | 18 | 1014.1 |
| 20260505011538 | 16 | 0 | 0.0 | 14.5 | 0.00 | 0.00 | 0.00 | 18 | 1014.0 |
| 20260505010037 | 16 | 95 | 0.0 | 16.1 | 0.00 | 0.00 | 0.00 | 17 | 1014.0 |
| 20260505004535 | 17 | 0 | 0.0 | 12.9 | 0.00 | 0.00 | 0.00 | 17 | 1014.2 |
| 20260505003035 | 17 | 0 | 0.0 | 19.3 | 0.00 | 0.00 | 0.00 | 17 | 1014.3 |
| 20260505001539 | 17 | 0 | 0.0 | 14.5 | 0.00 | 0.00 | 0.00 | 17 | 1014.2 |
| 20260505000044 | 17 | 0 | 0.0 | 1.6 | 0.00 | 0.00 | 0.00 | 18 | 1014.5 |
| 20260504234536 | 17 | 0 | 1.6 | 19.3 | 0.00 | 0.00 | 0.00 | 18 | 1014.6 |
| 20260504233100 | 18 | 0 | 1.6 | 16.1 | 0.00 | 0.00 | 0.00 | 18 | 1014.5 |
| 20260504231541 | 18 | 94 | 0.0 | 9.7 | 0.00 | 0.00 | 0.00 | 19 | 1014.6 |
| 20260504230050 | 18 | 0 | 0.0 | 12.9 | 0.00 | 0.00 | 0.00 | 19 | 1014.9 |
| 20260504224540 | 17 | 0 | 1.6 | 14.5 | 0.00 | 0.00 | 0.00 | 18 | 1015.1 |
| 20260504223035 | 17 | 0 | 0.0 | 14.5 | 0.00 | 0.00 | 0.00 | 17 | 1014.9 |
| 20260504221536 | 17 | 0 | 0.0 | 14.5 | 0.00 | 0.00 | 0.00 | 17 | 1015.1 |
| 20260504220035 | 17 | 0 | 0.0 | 17.7 | 0.00 | 0.00 | 0.00 | 15 | 1015.6 |